Erie, CO

11:49 AM MDT on May 28, 2017 (GMT -0600)
Erie Municipal Airport

Weather History for KEIK - March, 2012

Change the Weather History Date:

Friday, March 23, 2012

  Actual Average (KBJC) Record (KBJC)
Temperature  
Mean Temperature 52 °F -  
Max Temperature 77 °F 53 °F 75 °F (1993)
Min Temperature 28 °F 32 °F 12 °F (1987)
Degree Days  
Heating Degree Days 12    
Growing Degree Days 2 (Base 50)    
Moisture  
Dew Point 23 °F    
Average Humidity 46    
Maximum Humidity 87    
Minimum Humidity 11    
Precipitation  
Precipitation 0.00 in - - ()
Sea Level Pressure  
Sea Level Pressure 29.97 in    
Wind  
Wind Speed 2 mph (SE)    
Max Wind Speed 10 mph    
Max Gust Speed -    
Visibility 10 miles    
Events      
Averages and records for this station are not official NWS values.
T = Trace of Precipitation, MM = Missing Value Source: NWS Daily Summary

Daily Weather History Graph

Daily Weather History Graph

Search for Another Location

Airport or City:

Trip Planner

Search our weather history database for the weather conditions in past years. The results will help you decide how hot, cold, wet, or windy it might be!

Date:

Astronomy

Mar. 23, 2012 Rise Set
Actual Time 6:57 AM MDT 7:15 PM MDT
Civil Twilight 6:30 AM MDT 7:43 PM MDT
Nautical Twilight 5:59 AM MDT 8:14 PM MDT
Astronomical Twilight 5:26 AM MDT 8:47 PM MDT
Moon 7:07 AM MDT (3/23) 8:40 PM MDT (3/23)
Length of Visible Light 13h 12m
Length of Day
12h 18m
New Moon, 1% of the Moon is Illuminated
Mar 23
New Moon
Mar 30
First Quarter
Apr 6
Full
Apr 13
Last Quarter
Apr 21
New

Hourly Weather History & Observations

Time (MDT) Temp. Windchill Dew Point Humidity Pressure Visibility Wind Dir Wind Speed Gust Speed Precip Events Conditions
12:15 AM 35.6 °F - 28.4 °F 75% 29.98 in 10.0 mi Calm Calm - N/A   Clear
12:35 AM 35.6 °F - 28.4 °F 75% 29.98 in 10.0 mi Calm Calm - N/A   Clear
12:55 AM 35.6 °F - 28.4 °F 75% 29.99 in 10.0 mi Calm Calm - N/A   Clear
1:15 AM 35.6 °F - 28.4 °F 75% 29.99 in 10.0 mi Calm Calm - N/A   Clear
1:35 AM 32.0 °F - 28.4 °F 87% 29.99 in 10.0 mi Calm Calm - N/A   Clear
1:55 AM 32.0 °F - 26.6 °F 80% 29.99 in 10.0 mi Calm Calm - N/A   Clear
2:15 AM 32.0 °F 27.5 °F 26.6 °F 80% 29.99 in 10.0 mi South 4.6 mph - N/A   Clear
2:35 AM 32.0 °F - 26.6 °F 80% 29.99 in 10.0 mi Calm Calm - N/A   Clear
2:55 AM 32.0 °F 28.7 °F 26.6 °F 80% 29.98 in 10.0 mi SSW 3.5 mph - N/A   Clear
3:15 AM 32.0 °F 28.7 °F 26.6 °F 80% 29.98 in 10.0 mi SSW 3.5 mph - N/A   Clear
3:35 AM 32.0 °F - 26.6 °F 80% 29.97 in 10.0 mi Calm Calm - N/A   Clear
3:55 AM 32.0 °F - 24.8 °F 75% 29.97 in 10.0 mi Calm Calm - N/A   Clear
4:15 AM 30.2 °F - 24.8 °F 80% 29.97 in 10.0 mi Calm Calm - N/A   Clear
4:35 AM 30.2 °F - 23.0 °F 75% 29.97 in 10.0 mi Calm Calm - N/A   Clear
4:55 AM 30.2 °F - 24.8 °F 80% 29.96 in 10.0 mi Calm Calm - N/A   Clear
5:15 AM 32.0 °F 27.5 °F 24.8 °F 75% 29.97 in 10.0 mi SSE 4.6 mph - N/A   Clear
5:35 AM 32.0 °F - 24.8 °F 75% 29.98 in 10.0 mi Calm Calm - N/A   Clear
5:55 AM 30.2 °F - 24.8 °F 80% 29.98 in 10.0 mi Calm Calm - N/A   Clear
6:15 AM 28.4 °F - 23.0 °F 80% 29.99 in 10.0 mi Calm Calm - N/A   Clear
6:35 AM 28.4 °F 23.3 °F 23.0 °F 80% 29.99 in 10.0 mi SW 4.6 mph - N/A   Clear
6:55 AM 28.4 °F 24.6 °F 23.0 °F 80% 30.00 in 10.0 mi South 3.5 mph - N/A   Clear
7:15 AM 30.2 °F 26.7 °F 24.8 °F 80% 30.01 in 7.0 mi SW 3.5 mph - N/A   Clear
7:35 AM 30.2 °F - 26.6 °F 86% 30.02 in 7.0 mi Calm Calm - N/A   Clear
7:55 AM 33.8 °F 30.8 °F 26.6 °F 75% 30.02 in 10.0 mi SSW 3.5 mph - N/A   Clear
8:15 AM 37.4 °F - 28.4 °F 70% 30.02 in 10.0 mi Calm Calm - N/A   Clear
8:35 AM 42.8 °F - 28.4 °F 57% 30.02 in 10.0 mi Calm Calm - N/A   Clear
8:55 AM 46.4 °F - 26.6 °F 46% 30.03 in 10.0 mi Calm Calm - N/A   Clear
9:15 AM 50.0 °F - 26.6 °F 40% 30.03 in 10.0 mi Calm Calm - N/A   Clear
9:35 AM 51.8 °F - 26.6 °F 38% 30.03 in 10.0 mi Calm Calm - N/A   Clear
9:55 AM 53.6 °F - 26.6 °F 35% 30.02 in 10.0 mi Calm Calm - N/A   Clear
10:15 AM 55.4 °F - 26.6 °F 33% 30.02 in 10.0 mi Calm Calm - N/A   Clear
10:35 AM 59.0 °F - 26.6 °F 29% 30.01 in 10.0 mi Calm Calm - N/A   Clear
10:55 AM 60.8 °F - 24.8 °F 25% 30.01 in 10.0 mi Calm Calm - N/A   Clear
11:15 AM 62.6 °F - 26.6 °F 26% 30.00 in 10.0 mi Calm Calm - N/A   Clear
11:35 AM 66.2 °F - 17.6 °F 15% 29.99 in 10.0 mi SSE 5.8 mph - N/A   Clear
11:55 AM 68.0 °F - 17.6 °F 15% 29.99 in 10.0 mi SE 8.1 mph - N/A   Clear
12:15 PM 69.8 °F - 17.6 °F 14% 29.98 in 10.0 mi SE 8.1 mph - N/A   Clear
12:35 PM 69.8 °F - 15.8 °F 13% 29.97 in 10.0 mi SE 5.8 mph - N/A   Clear
12:55 PM 71.6 °F - 15.8 °F 12% 29.96 in 10.0 mi SE 4.6 mph - N/A   Clear
1:15 PM 71.6 °F - 15.8 °F 12% 29.96 in 10.0 mi ESE 4.6 mph - N/A   Clear
1:35 PM 73.4 °F - 17.6 °F 12% 29.95 in 10.0 mi ESE 8.1 mph - N/A   Clear
1:55 PM 73.4 °F - 15.8 °F 11% 29.94 in 10.0 mi ENE 3.5 mph - N/A   Clear
2:15 PM 73.4 °F - 17.6 °F 12% 29.94 in 10.0 mi ESE 6.9 mph - N/A   Clear
2:35 PM 75.2 °F - 17.6 °F 11% 29.93 in 10.0 mi SE 5.8 mph - N/A   Clear
2:55 PM 75.2 °F - 17.6 °F 11% 29.92 in 10.0 mi ESE 6.9 mph - N/A   Clear
3:15 PM 75.2 °F - 17.6 °F 11% 29.92 in 10.0 mi ESE 4.6 mph - N/A   Clear
3:35 PM 77.0 °F - 17.6 °F 11% 29.92 in 10.0 mi SE 9.2 mph - N/A   Clear
3:55 PM 77.0 °F - 17.6 °F 11% 29.91 in 10.0 mi ESE 10.4 mph - N/A   Clear
4:15 PM 77.0 °F - 17.6 °F 11% 29.91 in 10.0 mi ESE 4.6 mph - N/A   Clear
4:35 PM 75.2 °F - 17.6 °F 11% 29.91 in 10.0 mi East 9.2 mph - N/A   Clear
4:55 PM 77.0 °F - 17.6 °F 11% 29.91 in 10.0 mi ESE 10.4 mph - N/A   Clear
5:15 PM 75.2 °F - 17.6 °F 11% 29.91 in 10.0 mi East 6.9 mph - N/A   Clear
5:35 PM 75.2 °F - 17.6 °F 11% 29.91 in 10.0 mi ESE 9.2 mph - N/A   Clear
5:55 PM 73.4 °F - 17.6 °F 12% 29.91 in 10.0 mi East 8.1 mph - N/A   Clear
6:15 PM 73.4 °F - 17.6 °F 12% 29.91 in 10.0 mi East 8.1 mph - N/A   Clear
6:35 PM 71.6 °F - 17.6 °F 13% 29.92 in 10.0 mi East 6.9 mph - N/A   Clear
6:55 PM 68.0 °F - 19.4 °F 16% 29.92 in 10.0 mi East 4.6 mph - N/A   Clear
7:15 PM 66.2 °F - 19.4 °F 17% 29.93 in 10.0 mi Calm Calm - N/A   Clear
7:35 PM 60.8 °F - 21.2 °F 22% 29.93 in 10.0 mi Calm Calm - N/A   Clear
7:55 PM 59.0 °F - 21.2 °F 23% 29.94 in 10.0 mi Calm Calm - N/A   Clear
8:15 PM 57.2 °F - 23.0 °F 27% 29.94 in 10.0 mi Calm Calm - N/A   Clear
8:35 PM 55.4 °F - 23.0 °F 29% 29.95 in 10.0 mi Calm Calm - N/A   Clear
8:55 PM 53.6 °F - 23.0 °F 30% 29.96 in 10.0 mi Calm Calm - N/A   Clear
9:15 PM 51.8 °F - 23.0 °F 33% 29.97 in 10.0 mi Calm Calm - N/A   Clear
9:35 PM 51.8 °F - 23.0 °F 33% 29.97 in 10.0 mi Calm Calm - N/A   Clear
9:55 PM 50.0 °F - 23.0 °F 35% 29.98 in 10.0 mi Calm Calm - N/A   Clear
10:15 PM 48.2 °F - 24.8 °F 40% 29.98 in 10.0 mi South 3.5 mph - N/A   Clear
10:35 PM 46.4 °F - 26.6 °F 46% 29.98 in 10.0 mi Calm Calm - N/A   Clear
10:55 PM 44.6 °F - 24.8 °F 46% 29.99 in 10.0 mi Calm Calm - N/A   Clear
11:15 PM 42.8 °F - 24.8 °F 49% 29.99 in 10.0 mi Calm Calm - N/A   Clear
11:35 PM 41.0 °F - 26.6 °F 57% 29.99 in 10.0 mi Calm Calm - N/A   Clear
11:55 PM 37.4 °F 34.9 °F 26.6 °F 65% 29.99 in 10.0 mi SW 3.5 mph - N/A   Clear